Year,Month,Day,Hour,Minute,Value (Times are PST for insolation in W/m^2)
2018,01,31,00,00,0.00
2018,01,31,00,01,0.00
2018,01,31,00,02,0.00
2018,01,31,00,03,0.00
2018,01,31,00,04,0.00
2018,01,31,00,05,0.00
2018,01,31,00,06,0.00
2018,01,31,00,07,0.00
2018,01,31,00,08,0.00
2018,01,31,00,09,0.00
2018,01,31,00,10,0.00
2018,01,31,00,11,0.00
2018,01,31,00,12,0.00
2018,01,31,00,13,0.00
2018,01,31,00,14,0.00
2018,01,31,00,15,0.00
2018,01,31,00,16,0.00
2018,01,31,00,17,0.00
2018,01,31,00,18,0.00
2018,01,31,00,19,0.00
2018,01,31,00,20,0.00
2018,01,31,00,21,0.00
2018,01,31,00,22,0.00
2018,01,31,00,23,0.00
2018,01,31,00,24,0.00
2018,01,31,00,25,0.00
2018,01,31,00,26,0.00
2018,01,31,00,27,0.00
2018,01,31,00,28,0.00
2018,01,31,00,29,0.00
2018,01,31,00,30,0.00
2018,01,31,00,31,0.00
2018,01,31,00,32,0.00
2018,01,31,00,33,0.00
2018,01,31,00,34,0.00
2018,01,31,00,35,0.00
2018,01,31,00,36,0.00
2018,01,31,00,37,0.00
2018,01,31,00,38,0.00
2018,01,31,00,39,0.00
2018,01,31,00,40,0.00
2018,01,31,00,41,0.00
2018,01,31,00,42,0.00
2018,01,31,00,43,0.00
2018,01,31,00,44,0.00
2018,01,31,00,45,0.00
2018,01,31,00,46,0.00
2018,01,31,00,47,0.00
2018,01,31,00,48,0.00
2018,01,31,00,49,0.00
2018,01,31,00,50,0.00
2018,01,31,00,51,0.00
2018,01,31,00,52,0.00
2018,01,31,00,53,0.00
2018,01,31,00,54,0.00
2018,01,31,00,55,0.00
2018,01,31,00,56,0.00
2018,01,31,00,57,0.00
2018,01,31,00,58,0.00
2018,01,31,00,59,0.00
2018,01,31,01,00,0.00
2018,01,31,01,01,0.00
2018,01,31,01,02,0.00
2018,01,31,01,03,0.00
2018,01,31,01,04,0.00
2018,01,31,01,05,0.00
2018,01,31,01,06,0.00
2018,01,31,01,07,0.00
2018,01,31,01,08,0.00
2018,01,31,01,09,0.00
2018,01,31,01,10,0.00
2018,01,31,01,11,0.00
2018,01,31,01,12,0.00
2018,01,31,01,13,0.00
2018,01,31,01,14,0.00
2018,01,31,01,15,0.00
2018,01,31,01,16,0.00
2018,01,31,01,17,0.00
2018,01,31,01,18,0.00
2018,01,31,01,19,0.00
2018,01,31,01,20,0.00
2018,01,31,01,21,0.00
2018,01,31,01,22,0.00
2018,01,31,01,23,0.00
2018,01,31,01,24,0.00
2018,01,31,01,25,0.00
2018,01,31,01,26,0.00
2018,01,31,01,27,0.00
2018,01,31,01,28,0.00
2018,01,31,01,29,0.00
2018,01,31,01,30,0.00
2018,01,31,01,31,0.00
2018,01,31,01,32,0.00
2018,01,31,01,33,0.00
2018,01,31,01,34,0.00
2018,01,31,01,35,0.00
2018,01,31,01,36,0.00
2018,01,31,01,37,0.00
2018,01,31,01,38,0.00
2018,01,31,01,39,0.00
2018,01,31,01,40,0.00
2018,01,31,01,41,0.00
2018,01,31,01,42,0.00
2018,01,31,01,43,0.00
2018,01,31,01,44,0.00
2018,01,31,01,45,0.00
2018,01,31,01,46,0.00
2018,01,31,01,47,0.00
2018,01,31,01,48,0.00
2018,01,31,01,49,0.00
2018,01,31,01,50,0.00
2018,01,31,01,51,0.00
2018,01,31,01,52,0.00
2018,01,31,01,53,0.00
2018,01,31,01,54,0.00
2018,01,31,01,55,0.00
2018,01,31,01,56,0.00
2018,01,31,01,57,0.00
2018,01,31,01,58,0.00
2018,01,31,01,59,0.00
2018,01,31,02,00,0.00
2018,01,31,02,01,0.00
2018,01,31,02,02,0.00
2018,01,31,02,03,0.00
2018,01,31,02,04,0.00
2018,01,31,02,05,0.00
2018,01,31,02,06,0.00
2018,01,31,02,07,0.00
2018,01,31,02,08,0.00
2018,01,31,02,09,0.00
2018,01,31,02,10,0.00
2018,01,31,02,11,0.00
2018,01,31,02,12,0.00
2018,01,31,02,13,0.00
2018,01,31,02,14,0.00
2018,01,31,02,15,0.00
2018,01,31,02,16,0.00
2018,01,31,02,17,0.00
2018,01,31,02,18,0.00
2018,01,31,02,19,0.00
2018,01,31,02,20,0.00
2018,01,31,02,21,0.00
2018,01,31,02,22,0.00
2018,01,31,02,23,0.00
2018,01,31,02,24,0.00
2018,01,31,02,25,0.00
2018,01,31,02,26,0.00
2018,01,31,02,27,0.00
2018,01,31,02,28,0.00
2018,01,31,02,29,0.00
2018,01,31,02,30,0.00
2018,01,31,02,31,0.00
2018,01,31,02,32,0.00
2018,01,31,02,33,0.00
2018,01,31,02,34,0.00
2018,01,31,02,35,0.00
2018,01,31,02,36,0.00
2018,01,31,02,37,0.00
2018,01,31,02,38,0.00
2018,01,31,02,39,0.00
2018,01,31,02,40,0.00
2018,01,31,02,41,0.00
2018,01,31,02,42,0.00
2018,01,31,02,43,0.00
2018,01,31,02,44,0.00
2018,01,31,02,45,0.00
2018,01,31,02,46,0.00
2018,01,31,02,47,0.00
2018,01,31,02,48,0.00
2018,01,31,02,49,0.00
2018,01,31,02,50,0.00
2018,01,31,02,51,0.00
2018,01,31,02,52,0.00
2018,01,31,02,53,0.00
2018,01,31,02,54,0.00
2018,01,31,02,55,0.00
2018,01,31,02,56,0.00
2018,01,31,02,57,0.00
2018,01,31,02,58,0.00
2018,01,31,02,59,0.00
2018,01,31,03,00,0.00
2018,01,31,03,01,0.00
2018,01,31,03,02,0.00
2018,01,31,03,03,0.00
2018,01,31,03,04,0.00
2018,01,31,03,05,0.00
2018,01,31,03,06,0.00
2018,01,31,03,07,0.00
2018,01,31,03,08,0.00
2018,01,31,03,09,0.00
2018,01,31,03,10,0.00
2018,01,31,03,11,0.00
2018,01,31,03,12,0.00
2018,01,31,03,13,0.00
2018,01,31,03,14,0.00
2018,01,31,03,15,0.00
2018,01,31,03,16,0.00
2018,01,31,03,17,0.00
2018,01,31,03,18,0.00
2018,01,31,03,19,0.00
2018,01,31,03,20,0.00
2018,01,31,03,21,0.00
2018,01,31,03,22,0.00
2018,01,31,03,23,0.00
2018,01,31,03,24,0.00
2018,01,31,03,25,0.00
2018,01,31,03,26,0.00
2018,01,31,03,27,0.00
2018,01,31,03,28,0.00
2018,01,31,03,29,0.00
2018,01,31,03,30,0.00
2018,01,31,03,31,0.00
2018,01,31,03,32,0.00
2018,01,31,03,33,0.00
2018,01,31,03,34,0.00
2018,01,31,03,35,0.00
2018,01,31,03,36,0.00
2018,01,31,03,37,0.00
2018,01,31,03,38,0.00
2018,01,31,03,39,0.00
2018,01,31,03,40,0.00
2018,01,31,03,41,0.00
2018,01,31,03,42,0.00
2018,01,31,03,43,0.00
2018,01,31,03,44,0.00
2018,01,31,03,45,0.00
2018,01,31,03,46,0.00
2018,01,31,03,47,0.00
2018,01,31,03,48,0.00
2018,01,31,03,49,0.00
2018,01,31,03,50,0.00
2018,01,31,03,51,0.00
2018,01,31,03,52,0.00
2018,01,31,03,53,0.00
2018,01,31,03,54,0.00
2018,01,31,03,55,0.00
2018,01,31,03,56,0.00
2018,01,31,03,57,0.00
2018,01,31,03,58,0.00
2018,01,31,03,59,0.00
2018,01,31,04,00,0.00
2018,01,31,04,01,0.00
2018,01,31,04,02,0.00
2018,01,31,04,03,0.00
2018,01,31,04,04,0.00
2018,01,31,04,05,0.00
2018,01,31,04,06,0.00
2018,01,31,04,07,0.00
2018,01,31,04,08,0.00
2018,01,31,04,09,0.00
2018,01,31,04,10,0.00
2018,01,31,04,11,0.00
2018,01,31,04,12,0.00
2018,01,31,04,13,0.00
2018,01,31,04,14,0.00
2018,01,31,04,15,0.00
2018,01,31,04,16,0.00
2018,01,31,04,17,0.00
2018,01,31,04,18,0.00
2018,01,31,04,19,0.00
2018,01,31,04,20,0.00
2018,01,31,04,21,0.00
2018,01,31,04,22,0.00
2018,01,31,04,23,0.00
2018,01,31,04,24,0.00
2018,01,31,04,25,0.00
2018,01,31,04,26,0.00
2018,01,31,04,27,0.00
2018,01,31,04,28,0.00
2018,01,31,04,29,0.00
2018,01,31,04,30,0.00
2018,01,31,04,31,0.00
2018,01,31,04,32,0.00
2018,01,31,04,33,0.00
2018,01,31,04,34,0.00
2018,01,31,04,35,0.00
2018,01,31,04,36,0.00
2018,01,31,04,37,0.00
2018,01,31,04,38,0.00
2018,01,31,04,39,0.00
2018,01,31,04,40,0.00
2018,01,31,04,41,0.00
2018,01,31,04,42,0.00
2018,01,31,04,43,0.00
2018,01,31,04,44,0.00
2018,01,31,04,45,0.00
2018,01,31,04,46,0.00
2018,01,31,04,47,0.00
2018,01,31,04,48,0.00
2018,01,31,04,49,0.00
2018,01,31,04,50,0.00
2018,01,31,04,51,0.00
2018,01,31,04,52,0.00
2018,01,31,04,53,0.00
2018,01,31,04,54,0.00
2018,01,31,04,55,0.00
2018,01,31,04,56,0.00
2018,01,31,04,57,0.00
2018,01,31,04,58,0.00
2018,01,31,04,59,0.00
2018,01,31,05,00,0.00
2018,01,31,05,01,0.00
2018,01,31,05,02,0.00
2018,01,31,05,03,0.00
2018,01,31,05,04,0.00
2018,01,31,05,05,0.00
2018,01,31,05,06,0.00
2018,01,31,05,07,0.00
2018,01,31,05,08,0.00
2018,01,31,05,09,0.00
2018,01,31,05,10,0.00
2018,01,31,05,11,0.00
2018,01,31,05,12,0.00
2018,01,31,05,13,0.00
2018,01,31,05,14,0.00
2018,01,31,05,15,0.00
2018,01,31,05,16,0.00
2018,01,31,05,17,0.00
2018,01,31,05,18,0.00
2018,01,31,05,19,0.00
2018,01,31,05,20,0.00
2018,01,31,05,21,0.00
2018,01,31,05,22,0.00
2018,01,31,05,23,0.00
2018,01,31,05,24,0.00
2018,01,31,05,25,0.00
2018,01,31,05,26,0.00
2018,01,31,05,27,0.00
2018,01,31,05,28,0.00
2018,01,31,05,29,0.00
2018,01,31,05,30,0.00
2018,01,31,05,31,0.00
2018,01,31,05,32,0.00
2018,01,31,05,33,0.00
2018,01,31,05,34,0.00
2018,01,31,05,35,0.00
2018,01,31,05,36,0.00
2018,01,31,05,37,0.00
2018,01,31,05,38,0.00
2018,01,31,05,39,0.00
2018,01,31,05,40,0.00
2018,01,31,05,41,0.00
2018,01,31,05,42,0.00
2018,01,31,05,43,0.00
2018,01,31,05,44,0.00
2018,01,31,05,45,0.00
2018,01,31,05,46,0.00
2018,01,31,05,47,0.00
2018,01,31,05,48,0.00
2018,01,31,05,49,0.00
2018,01,31,05,50,0.00
2018,01,31,05,51,0.00
2018,01,31,05,52,0.00
2018,01,31,05,53,0.00
2018,01,31,05,54,0.00
2018,01,31,05,55,0.00
2018,01,31,05,56,0.00
2018,01,31,05,57,0.00
2018,01,31,05,58,0.00
2018,01,31,05,59,0.00
2018,01,31,06,00,0.00
2018,01,31,06,01,0.00
2018,01,31,06,02,0.00
2018,01,31,06,03,0.00
2018,01,31,06,04,0.00
2018,01,31,06,05,0.00
2018,01,31,06,06,0.00
2018,01,31,06,07,0.00
2018,01,31,06,08,0.00
2018,01,31,06,09,0.00
2018,01,31,06,10,0.00
2018,01,31,06,11,0.00
2018,01,31,06,12,0.00
2018,01,31,06,13,0.00
2018,01,31,06,14,0.00
2018,01,31,06,15,0.00
2018,01,31,06,16,0.00
2018,01,31,06,17,0.00
2018,01,31,06,18,0.00
2018,01,31,06,19,0.00
2018,01,31,06,20,0.00
2018,01,31,06,21,0.00
2018,01,31,06,22,0.00
2018,01,31,06,23,0.00
2018,01,31,06,24,0.00
2018,01,31,06,25,0.00
2018,01,31,06,26,0.00
2018,01,31,06,27,0.00
2018,01,31,06,28,0.00
2018,01,31,06,29,0.00
2018,01,31,06,30,0.00
2018,01,31,06,31,0.00
2018,01,31,06,32,0.00
2018,01,31,06,33,0.00
2018,01,31,06,34,0.00
2018,01,31,06,35,0.00
2018,01,31,06,36,0.00
2018,01,31,06,37,0.00
2018,01,31,06,38,0.00
2018,01,31,06,39,0.00
2018,01,31,06,40,0.00
2018,01,31,06,41,0.00
2018,01,31,06,42,0.00
2018,01,31,06,43,0.00
2018,01,31,06,44,0.00
2018,01,31,06,45,0.00
2018,01,31,06,46,0.00
2018,01,31,06,47,0.00
2018,01,31,06,48,0.00
2018,01,31,06,49,0.00
2018,01,31,06,50,0.00
2018,01,31,06,51,0.00
2018,01,31,06,52,0.00
2018,01,31,06,53,0.00
2018,01,31,06,54,0.00
2018,01,31,06,55,0.00
2018,01,31,06,56,0.00
2018,01,31,06,57,0.00
2018,01,31,06,58,0.00
2018,01,31,06,59,0.00
2018,01,31,07,00,0.00
2018,01,31,07,01,0.00
2018,01,31,07,02,0.00
2018,01,31,07,03,0.00
2018,01,31,07,04,0.00
2018,01,31,07,05,0.00
2018,01,31,07,06,0.00
2018,01,31,07,07,0.00
2018,01,31,07,08,0.00
2018,01,31,07,09,0.00
2018,01,31,07,10,0.00
2018,01,31,07,11,0.00
2018,01,31,07,12,0.00
2018,01,31,07,13,0.00
2018,01,31,07,14,0.00
2018,01,31,07,15,0.00
2018,01,31,07,16,0.00
2018,01,31,07,17,0.00
2018,01,31,07,18,0.00
2018,01,31,07,19,0.00
2018,01,31,07,20,0.00
2018,01,31,07,21,0.00
2018,01,31,07,22,0.00
2018,01,31,07,23,0.00
2018,01,31,07,24,0.00
2018,01,31,07,25,0.00
2018,01,31,07,26,0.00
2018,01,31,07,27,0.00
2018,01,31,07,28,0.00
2018,01,31,07,29,0.00
2018,01,31,07,30,0.00
2018,01,31,07,31,0.00
2018,01,31,07,32,0.00
2018,01,31,07,33,0.00
2018,01,31,07,34,0.00
2018,01,31,07,35,0.00
2018,01,31,07,36,0.00
2018,01,31,07,37,0.00
2018,01,31,07,38,0.00
2018,01,31,07,39,0.00
2018,01,31,07,40,0.00
2018,01,31,07,41,0.00
2018,01,31,07,42,0.00
2018,01,31,07,43,0.00
2018,01,31,07,44,0.00
2018,01,31,07,45,0.00
2018,01,31,07,46,0.00
2018,01,31,07,47,0.00
2018,01,31,07,48,3.20
2018,01,31,07,49,5.00
2018,01,31,07,50,5.00
2018,01,31,07,51,5.00
2018,01,31,07,52,5.00
2018,01,31,07,53,7.00
2018,01,31,07,54,7.00
2018,01,31,07,55,7.30
2018,01,31,07,56,9.00
2018,01,31,07,57,9.60
2018,01,31,07,58,11.00
2018,01,31,07,59,11.40
2018,01,31,08,00,12.00
2018,01,31,08,01,13.00
2018,01,31,08,02,15.20
2018,01,31,08,03,16.00
2018,01,31,08,04,17.40
2018,01,31,08,05,18.00
2018,01,31,08,06,20.40
2018,01,31,08,07,21.00
2018,01,31,08,08,22.90
2018,01,31,08,09,25.00
2018,01,31,08,10,25.00
2018,01,31,08,11,25.00
2018,01,31,08,12,25.00
2018,01,31,08,13,25.00
2018,01,31,08,14,25.00
2018,01,31,08,15,25.00
2018,01,31,08,16,23.90
2018,01,31,08,17,23.00
2018,01,31,08,18,23.00
2018,01,31,08,19,21.60
2018,01,31,08,20,21.00
2018,01,31,08,21,21.00
2018,01,31,08,22,21.00
2018,01,31,08,23,21.00
2018,01,31,08,24,21.00
2018,01,31,08,25,21.00
2018,01,31,08,26,21.00
2018,01,31,08,27,21.00
2018,01,31,08,28,21.00
2018,01,31,08,29,21.80
2018,01,31,08,30,23.00
2018,01,31,08,31,23.00
2018,01,31,08,32,23.00
2018,01,31,08,33,24.30
2018,01,31,08,34,25.00
2018,01,31,08,35,25.00
2018,01,31,08,36,25.80
2018,01,31,08,37,26.00
2018,01,31,08,38,26.10
2018,01,31,08,39,28.00
2018,01,31,08,40,28.20
2018,01,31,08,41,30.40
2018,01,31,08,42,32.00
2018,01,31,08,43,32.30
2018,01,31,08,44,33.80
2018,01,31,08,45,37.20
2018,01,31,08,46,44.70
2018,01,31,08,47,45.20
2018,01,31,08,48,43.30
2018,01,31,08,49,46.10
2018,01,31,08,50,48.50
2018,01,31,08,51,50.70
2018,01,31,08,52,57.30
2018,01,31,08,53,79.00
2018,01,31,08,54,57.80
2018,01,31,08,55,55.80
2018,01,31,08,56,54.00
2018,01,31,08,57,54.00
2018,01,31,08,58,54.00
2018,01,31,08,59,54.00
2018,01,31,09,00,55.00
2018,01,31,09,01,57.10
2018,01,31,09,02,58.00
2018,01,31,09,03,60.60
2018,01,31,09,04,62.70
2018,01,31,09,05,63.00
2018,01,31,09,06,66.20
2018,01,31,09,07,68.80
2018,01,31,09,08,70.10
2018,01,31,09,09,72.00
2018,01,31,09,10,72.00
2018,01,31,09,11,72.40
2018,01,31,09,12,74.00
2018,01,31,09,13,74.00
2018,01,31,09,14,74.00
2018,01,31,09,15,74.00
2018,01,31,09,16,75.00
2018,01,31,09,17,76.00
2018,01,31,09,18,74.70
2018,01,31,09,19,74.00
2018,01,31,09,20,72.50
2018,01,31,09,21,70.40
2018,01,31,09,22,69.10
2018,01,31,09,23,67.10
2018,01,31,09,24,67.00
2018,01,31,09,25,67.00
2018,01,31,09,26,67.40
2018,01,31,09,27,69.90
2018,01,31,09,28,72.00
2018,01,31,09,29,72.80
2018,01,31,09,30,74.90
2018,01,31,09,31,76.00
2018,01,31,09,32,76.00
2018,01,31,09,33,76.00
2018,01,31,09,34,76.00
2018,01,31,09,35,79.80
2018,01,31,09,36,81.00
2018,01,31,09,37,89.10
2018,01,31,09,38,92.80
2018,01,31,09,39,97.10
2018,01,31,09,40,98.60
2018,01,31,09,41,102.00
2018,01,31,09,42,102.00
2018,01,31,09,43,102.70
2018,01,31,09,44,104.40
2018,01,31,09,45,105.00
2018,01,31,09,46,104.50
2018,01,31,09,47,104.00
2018,01,31,09,48,104.00
2018,01,31,09,49,104.00
2018,01,31,09,50,104.00
2018,01,31,09,51,104.00
2018,01,31,09,52,104.00
2018,01,31,09,53,104.00
2018,01,31,09,54,104.00
2018,01,31,09,55,104.00
2018,01,31,09,56,103.60
2018,01,31,09,57,102.00
2018,01,31,09,58,102.00
2018,01,31,09,59,100.40
2018,01,31,10,00,97.60
2018,01,31,10,01,95.90
2018,01,31,10,02,92.70
2018,01,31,10,03,90.30
2018,01,31,10,04,87.20
2018,01,31,10,05,84.50
2018,01,31,10,06,81.40
2018,01,31,10,07,79.20
2018,01,31,10,08,77.10
2018,01,31,10,09,75.80
2018,01,31,10,10,74.00
2018,01,31,10,11,73.60
2018,01,31,10,12,72.00
2018,01,31,10,13,72.00
2018,01,31,10,14,71.30
2018,01,31,10,15,69.60
2018,01,31,10,16,69.00
2018,01,31,10,17,69.00
2018,01,31,10,18,69.00
2018,01,31,10,19,66.30
2018,01,31,10,20,65.00
2018,01,31,10,21,65.00
2018,01,31,10,22,63.20
2018,01,31,10,23,63.00
2018,01,31,10,24,63.10
2018,01,31,10,25,65.00
2018,01,31,10,26,65.00
2018,01,31,10,27,65.50
2018,01,31,10,28,67.00
2018,01,31,10,29,67.70
2018,01,31,10,30,69.40
2018,01,31,10,31,71.10
2018,01,31,10,32,73.20
2018,01,31,10,33,75.30
2018,01,31,10,34,76.70
2018,01,31,10,35,78.50
2018,01,31,10,36,79.00
2018,01,31,10,37,80.80
2018,01,31,10,38,81.10
2018,01,31,10,39,83.10
2018,01,31,10,40,84.00
2018,01,31,10,41,84.00
2018,01,31,10,42,84.60
2018,01,31,10,43,86.00
2018,01,31,10,44,86.00
2018,01,31,10,45,86.00
2018,01,31,10,46,86.00
2018,01,31,10,47,86.00
2018,01,31,10,48,86.00
2018,01,31,10,49,87.40
2018,01,31,10,50,88.00
2018,01,31,10,51,88.00
2018,01,31,10,52,88.00
2018,01,31,10,53,88.00
2018,01,31,10,54,88.00
2018,01,31,10,55,87.80
2018,01,31,10,56,86.00
2018,01,31,10,57,86.00
2018,01,31,10,58,86.00
2018,01,31,10,59,86.00
2018,01,31,11,00,86.00
2018,01,31,11,01,86.00
2018,01,31,11,02,86.00
2018,01,31,11,03,84.70
2018,01,31,11,04,84.00
2018,01,31,11,05,84.00
2018,01,31,11,06,83.20
2018,01,31,11,07,81.20
2018,01,31,11,08,81.00
2018,01,31,11,09,80.90
2018,01,31,11,10,79.00
2018,01,31,11,11,78.50
2018,01,31,11,12,77.00
2018,01,31,11,13,76.70
2018,01,31,11,14,76.00
2018,01,31,11,15,74.20
2018,01,31,11,16,72.00
2018,01,31,11,17,70.80
2018,01,31,11,18,69.40
2018,01,31,11,19,69.00
2018,01,31,11,20,69.00
2018,01,31,11,21,67.30
2018,01,31,11,22,67.00
2018,01,31,11,23,68.90
2018,01,31,11,24,69.00
2018,01,31,11,25,69.00
2018,01,31,11,26,69.20
2018,01,31,11,27,70.50
2018,01,31,11,28,73.40
2018,01,31,11,29,76.00
2018,01,31,11,30,77.30
2018,01,31,11,31,79.00
2018,01,31,11,32,80.10
2018,01,31,11,33,82.30
2018,01,31,11,34,83.70
2018,01,31,11,35,84.00
2018,01,31,11,36,84.00
2018,01,31,11,37,84.00
2018,01,31,11,38,84.00
2018,01,31,11,39,84.00
2018,01,31,11,40,84.30
2018,01,31,11,41,86.00
2018,01,31,11,42,86.50
2018,01,31,11,43,88.00
2018,01,31,11,44,88.80
2018,01,31,11,45,90.00
2018,01,31,11,46,89.00
2018,01,31,11,47,88.00
2018,01,31,11,48,89.30
2018,01,31,11,49,90.00
2018,01,31,11,50,90.80
2018,01,31,11,51,92.70
2018,01,31,11,52,94.70
2018,01,31,11,53,95.00
2018,01,31,11,54,95.90
2018,01,31,11,55,104.40
2018,01,31,11,56,107.80
2018,01,31,11,57,111.50
2018,01,31,11,58,113.30
2018,01,31,11,59,114.80
2018,01,31,12,00,116.00
2018,01,31,12,01,114.90
2018,01,31,12,02,114.00
2018,01,31,12,03,114.00
2018,01,31,12,04,114.00
2018,01,31,12,05,114.00
2018,01,31,12,06,114.00
2018,01,31,12,07,114.00
2018,01,31,12,08,114.00
2018,01,31,12,09,116.00
2018,01,31,12,10,116.00
2018,01,31,12,11,115.60
2018,01,31,12,12,114.00
2018,01,31,12,13,113.70
2018,01,31,12,14,112.20
2018,01,31,12,15,110.20
2018,01,31,12,16,109.00
2018,01,31,12,17,106.70
2018,01,31,12,18,105.00
2018,01,31,12,19,102.90
2018,01,31,12,20,100.50
2018,01,31,12,21,100.00
2018,01,31,12,22,97.30
2018,01,31,12,23,95.10
2018,01,31,12,24,90.90
2018,01,31,12,25,90.00
2018,01,31,12,26,90.00
2018,01,31,12,27,89.50
2018,01,31,12,28,88.00
2018,01,31,12,29,87.30
2018,01,31,12,30,86.90
2018,01,31,12,31,89.10
2018,01,31,12,32,90.00
2018,01,31,12,33,90.00
2018,01,31,12,34,90.00
2018,01,31,12,35,88.40
2018,01,31,12,36,88.00
2018,01,31,12,37,86.20
2018,01,31,12,38,84.10
2018,01,31,12,39,82.80
2018,01,31,12,40,80.40
2018,01,31,12,41,77.00
2018,01,31,12,42,76.70
2018,01,31,12,43,76.30
2018,01,31,12,44,78.60
2018,01,31,12,45,83.20
2018,01,31,12,46,88.50
2018,01,31,12,47,93.30
2018,01,31,12,48,96.90
2018,01,31,12,49,99.40
2018,01,31,12,50,100.00
2018,01,31,12,51,100.00
2018,01,31,12,52,98.20
2018,01,31,12,53,97.10
2018,01,31,12,54,95.00
2018,01,31,12,55,95.00
2018,01,31,12,56,95.00
2018,01,31,12,57,95.00
2018,01,31,12,58,95.00
2018,01,31,12,59,95.00
2018,01,31,13,00,95.00
2018,01,31,13,01,96.00
2018,01,31,13,02,98.70
2018,01,31,13,03,102.60
2018,01,31,13,04,104.70
2018,01,31,13,05,106.50
2018,01,31,13,06,108.60
2018,01,31,13,07,109.00
2018,01,31,13,08,110.90
2018,01,31,13,09,111.20
2018,01,31,13,10,113.40
2018,01,31,13,11,116.40
2018,01,31,13,12,118.80
2018,01,31,13,13,121.00
2018,01,31,13,14,122.60
2018,01,31,13,15,125.00
2018,01,31,13,16,126.10
2018,01,31,13,17,127.60
2018,01,31,13,18,128.00
2018,01,31,13,19,129.30
2018,01,31,13,20,130.00
2018,01,31,13,21,127.40
2018,01,31,13,22,125.20
2018,01,31,13,23,120.20
2018,01,31,13,24,117.80
2018,01,31,13,25,113.80
2018,01,31,13,26,113.00
2018,01,31,13,27,112.40
2018,01,31,13,28,111.00
2018,01,31,13,29,111.00
2018,01,31,13,30,109.20
2018,01,31,13,31,106.00
2018,01,31,13,32,104.40
2018,01,31,13,33,102.70
2018,01,31,13,34,99.30
2018,01,31,13,35,98.00
2018,01,31,13,36,95.60
2018,01,31,13,37,93.30
2018,01,31,13,38,91.10
2018,01,31,13,39,90.90
2018,01,31,13,40,90.00
2018,01,31,13,41,90.00
2018,01,31,13,42,90.00
2018,01,31,13,43,90.00
2018,01,31,13,44,90.00
2018,01,31,13,45,90.00
2018,01,31,13,46,89.00
2018,01,31,13,47,89.20
2018,01,31,13,48,90.70
2018,01,31,13,49,92.40
2018,01,31,13,50,91.60
2018,01,31,13,51,91.00
2018,01,31,13,52,91.00
2018,01,31,13,53,91.00
2018,01,31,13,54,90.90
2018,01,31,13,55,89.40
2018,01,31,13,56,86.00
2018,01,31,13,57,87.00
2018,01,31,13,58,90.00
2018,01,31,13,59,90.00
2018,01,31,14,00,90.00
2018,01,31,14,01,90.50
2018,01,31,14,02,91.00
2018,01,31,14,03,90.30
2018,01,31,14,04,88.60
2018,01,31,14,05,84.80
2018,01,31,14,06,79.80
2018,01,31,14,07,76.40
2018,01,31,14,08,74.20
2018,01,31,14,09,77.60
2018,01,31,14,10,88.70
2018,01,31,14,11,93.80
2018,01,31,14,12,97.30
2018,01,31,14,13,98.60
2018,01,31,14,14,99.30
2018,01,31,14,15,98.00
2018,01,31,14,16,98.00
2018,01,31,14,17,98.00
2018,01,31,14,18,94.80
2018,01,31,14,19,88.30
2018,01,31,14,20,80.50
2018,01,31,14,21,76.60
2018,01,31,14,22,66.20
2018,01,31,14,23,71.10
2018,01,31,14,24,66.80
2018,01,31,14,25,65.00
2018,01,31,14,26,63.60
2018,01,31,14,27,58.00
2018,01,31,14,28,58.70
2018,01,31,14,29,62.60
2018,01,31,14,30,64.80
2018,01,31,14,31,70.50
2018,01,31,14,32,89.80
2018,01,31,14,33,91.20
2018,01,31,14,34,80.30
2018,01,31,14,35,80.20
2018,01,31,14,36,90.70
2018,01,31,14,37,101.10
2018,01,31,14,38,100.20
2018,01,31,14,39,111.70
2018,01,31,14,40,118.00
2018,01,31,14,41,116.10
2018,01,31,14,42,105.90
2018,01,31,14,43,98.70
2018,01,31,14,44,101.50
2018,01,31,14,45,102.10
2018,01,31,14,46,95.30
2018,01,31,14,47,93.20
2018,01,31,14,48,95.00
2018,01,31,14,49,92.20
2018,01,31,14,50,91.00
2018,01,31,14,51,95.80
2018,01,31,14,52,102.90
2018,01,31,14,53,108.70
2018,01,31,14,54,103.10
2018,01,31,14,55,94.60
2018,01,31,14,56,89.40
2018,01,31,14,57,83.20
2018,01,31,14,58,85.20
2018,01,31,14,59,87.20
2018,01,31,15,00,86.90
2018,01,31,15,01,89.10
2018,01,31,15,02,90.00
2018,01,31,15,03,90.70
2018,01,31,15,04,92.40
2018,01,31,15,05,93.00
2018,01,31,15,06,91.40
2018,01,31,15,07,90.10
2018,01,31,15,08,84.60
2018,01,31,15,09,85.80
2018,01,31,15,10,82.90
2018,01,31,15,11,76.00
2018,01,31,15,12,71.30
2018,01,31,15,13,69.00
2018,01,31,15,14,62.60
2018,01,31,15,15,53.00
2018,01,31,15,16,58.50
2018,01,31,15,17,54.60
2018,01,31,15,18,44.60
2018,01,31,15,19,35.70
2018,01,31,15,20,33.00
2018,01,31,15,21,30.50
2018,01,31,15,22,26.60
2018,01,31,15,23,34.10
2018,01,31,15,24,32.70
2018,01,31,15,25,25.50
2018,01,31,15,26,23.40
2018,01,31,15,27,25.30
2018,01,31,15,28,26.60
2018,01,31,15,29,25.50
2018,01,31,15,30,23.40
2018,01,31,15,31,28.10
2018,01,31,15,32,28.90
2018,01,31,15,33,31.20
2018,01,31,15,34,35.80
2018,01,31,15,35,33.80
2018,01,31,15,36,33.00
2018,01,31,15,37,34.70
2018,01,31,15,38,30.00
2018,01,31,15,39,26.20
2018,01,31,15,40,29.40
2018,01,31,15,41,25.40
2018,01,31,15,42,22.50
2018,01,31,15,43,22.20
2018,01,31,15,44,25.40
2018,01,31,15,45,26.90
2018,01,31,15,46,29.00
2018,01,31,15,47,30.00
2018,01,31,15,48,27.50
2018,01,31,15,49,28.80
2018,01,31,15,50,30.00
2018,01,31,15,51,28.30
2018,01,31,15,52,29.70
2018,01,31,15,53,28.20
2018,01,31,15,54,33.00
2018,01,31,15,55,33.00
2018,01,31,15,56,33.00
2018,01,31,15,57,32.80
2018,01,31,15,58,32.00
2018,01,31,15,59,32.00
2018,01,31,16,00,32.40
2018,01,31,16,01,33.00
2018,01,31,16,02,28.80
2018,01,31,16,03,22.80
2018,01,31,16,04,18.80
2018,01,31,16,05,18.00
2018,01,31,16,06,18.80
2018,01,31,16,07,18.10
2018,01,31,16,08,18.90
2018,01,31,16,09,18.10
2018,01,31,16,10,19.60
2018,01,31,16,11,23.00
2018,01,31,16,12,22.00
2018,01,31,16,13,18.10
2018,01,31,16,14,17.20
2018,01,31,16,15,19.00
2018,01,31,16,16,19.00
2018,01,31,16,17,17.40
2018,01,31,16,18,17.30
2018,01,31,16,19,18.70
2018,01,31,16,20,19.00
2018,01,31,16,21,22.40
2018,01,31,16,22,18.50
2018,01,31,16,23,14.40
2018,01,31,16,24,18.00
2018,01,31,16,25,17.10
2018,01,31,16,26,12.00
2018,01,31,16,27,12.00
2018,01,31,16,28,12.00
2018,01,31,16,29,11.60
2018,01,31,16,30,10.10
2018,01,31,16,31,10.00
2018,01,31,16,32,11.00
2018,01,31,16,33,11.60
2018,01,31,16,34,13.40
2018,01,31,16,35,14.00
2018,01,31,16,36,14.00
2018,01,31,16,37,12.30
2018,01,31,16,38,12.00
2018,01,31,16,39,12.00
2018,01,31,16,40,12.00
2018,01,31,16,41,12.00
2018,01,31,16,42,11.80
2018,01,31,16,43,11.00
2018,01,31,16,44,11.00
2018,01,31,16,45,11.40
2018,01,31,16,46,12.00
2018,01,31,16,47,12.00
2018,01,31,16,48,12.00
2018,01,31,16,49,12.00
2018,01,31,16,50,11.20
2018,01,31,16,51,9.40
2018,01,31,16,52,9.00
2018,01,31,16,53,9.00
2018,01,31,16,54,10.80
2018,01,31,16,55,9.00
2018,01,31,16,56,9.00
2018,01,31,16,57,9.00
2018,01,31,16,58,8.40
2018,01,31,16,59,7.00
2018,01,31,17,00,7.00
2018,01,31,17,01,6.00
2018,01,31,17,02,5.00
2018,01,31,17,03,5.00
2018,01,31,17,04,5.00
2018,01,31,17,05,5.00
2018,01,31,17,06,5.00
2018,01,31,17,07,0.80
2018,01,31,17,08,0.00
2018,01,31,17,09,0.00
2018,01,31,17,10,0.00
2018,01,31,17,11,0.00
2018,01,31,17,12,0.00
2018,01,31,17,13,0.00
2018,01,31,17,14,0.00
2018,01,31,17,15,0.00
2018,01,31,17,16,0.00
2018,01,31,17,17,0.00
2018,01,31,17,18,0.00
2018,01,31,17,19,0.00
2018,01,31,17,20,0.00
2018,01,31,17,21,0.00
2018,01,31,17,22,0.00
2018,01,31,17,23,0.00
2018,01,31,17,24,0.00
2018,01,31,17,25,0.00
2018,01,31,17,26,0.00
2018,01,31,17,27,0.00
2018,01,31,17,28,0.00
2018,01,31,17,29,0.00
2018,01,31,17,30,0.00
2018,01,31,17,31,0.00
2018,01,31,17,32,0.00
2018,01,31,17,33,0.00
2018,01,31,17,34,0.00
2018,01,31,17,35,0.00
2018,01,31,17,36,0.00
2018,01,31,17,37,0.00
2018,01,31,17,38,0.00